Weather in Khorol'

Russia / Primorsky Krai     44°25′38″N   132°04′29″E
temp.,
°C
wind,
m/s
gust,
m/s
humid.,
%
clouds,
%
prec.,
mm/h
press.,
hPa
HPBL,
m
16 may, sun
sun1601:00+12ssw3583100 0.1 1010115
04:00+11sw348260 0.1 100964
07:00+10sw237721 0.0 100969
10:00+16sw2253100 0.0 1008419
13:00+20se1339100 0.0 10061424
16:00+21ese2236100 0.0 10041204
19:00+18se2357100 0.0 100349
22:00+16se0057100 0.0 100411
17 may, mon
mon1701:00+14w226295 0.0 100414
04:00+12w2257100 0.0 100418
07:00+12w2260100 0.0 100540
10:00+18sw2243100 0.0 1004313
13:00+23ssw4531100 0.0 10041141
16:00+26w36235 0.0 10023120
19:00+23w37435 0.0 1002137
22:00+17w11480 0.0 100511
18 may, tue
tue1801:00+14ssw34570 0.0 100658
04:00+13ssw35630 0.0 100677
07:00+13ssw49680 0.0 1006156
10:00+20ssw68480 0.0 1006380
13:00+25ssw79340 0.0 10051303
16:00+26s810380 0.0 10031062
19:00+20s815520 0.0 1003349
22:00+15ssw919580 0.0 1005406
19 may, wed
wed1901:00+13ssw817730 0.0 1006330
04:00+12ssw815833 0.0 1006300
07:00+12s611884 0.3 1007247
10:00+19ssw56615 0.3 1008418
13:00+24ssw56460 0.0 1006777
16:00+25s894541 0.0 1005693
19:00+21s366389 0.0 1006246
22:00+15ssw511787 0.2 1009392
20 may, thu
thu2001:00+13sw410896 0.1 1009267
04:00+12ssw410895 0.4 1009198
07:00+13ssw6128331 0.0 1010228
10:00+20ssw68585 0.0 1009377
13:00+27ssw78419 0.0 1008880
16:00+26s913456 0.0 1006635
19:00+21ssw7145430 0.1 1007370
22:00+16s8146992 0.6 1008246